Location: Multiple Mirror Telescope
(31.6889°N, 110.8853°W)
Time: 11:23:50
(UTC-07:00)

Hubble Space Telescope - Pass Details

Date: 02 June 2024
Orbit: 511 x 515 km, 28.5° (Epoch: 14 June)

Event Time Altitude Azimuth Distance (km) Brightness Sun altitude
Rises 21:46:08 0° 265° (W) 2,612 4.7 -24.4°
Reaches altitude 10° 21:48:52 10° 247° (WSW) 1,724 3.5 -24.7°
Enters shadow 21:49:26 12° 240° (WSW) 1,576 3.2 -24.8°
